Über PARUS-T1
Group: 3 satellites
Beschreibung wird geladen...
Live-Position
3D-Globus wird geladen...
Nächste Überflüge
Höhenverlauf
Altitude vs Time
uPlot chart will show altitude changes over time
Zweizeiliger Elementsatz
1 62656U 25009AZ 25340.89726783 .00020497 00000-0 76932-3 0 9997
2 62656 97.4126 59.6449 0000654 15.2472 344.8787 15.27239496 49618
Epoch: 6. Dez. 2025 •
Age: 19 hours
Aktueller Status
Höhe 492.7 km
Geschwindigkeit 7.62 km/s
Subsatellitenpunkt 54.79°N,
83.49°E
Startdatum 14. Jan. 2025
Alter 0.8 years
Typ other
Technische Details
Klassifizierung Payload
Masse 4.00 kg
Trockenmasse 4.00 kg
Gesamtmasse 4.00 kg
Länge 0.30 m
Durchmesser 0.10 m
Spannweite 0.30 m
Form Box
Hersteller PYRAS
Bus-Typ Cubesat 3U
Phasenstatus In Orbit
Besitzer/Staat TASA/PYRAS/J
Große Konstellationen
Loading constellations...